Voltar ao catálogo

COSMOS 2251 DEB

AtivoLEO
NORAD 33914·DEBRIS·🇷🇺 Russia

Lançado Jun 16, 1993 de Plesetsk Cosmodrome

Loading…

Próximas Passagens (próximas 24 horas)

TLE

AtualizadoSource: Space-Track

Época: Sep 14, 2026, 20:16 UTC

1 33914U 93036DT  26257.84448770  .00000356  00000-0  29858-3 0  9994
2 33914  74.0877 279.8972 0304943 318.4106 225.7453 13.72279954878689

Acompanhe COSMOS 2251 DEB em tempo real com AllMySat

Download on the App Store